FW0954 Weather Reports


time (UTC)temp
C
wind
direction
speed
KPH
gust
KPH
rain 1hr
cm
rain 24hr
cm
rain mn
cm
humidity
%
barometer
mb
20260508103003 15 177 0.0 4.8 0.00 0.00 0.00 90 1013.8
20260508102503 15 178 1.6 4.8 0.00 0.00 0.00 91 1013.8
20260508101503 15 181 0.0 1.6 0.00 0.00 0.00 90 1013.8
20260508101003 15 0 0.0 0.0 0.00 0.00 0.00 90 1013.9
20260508100503 15 181 0.0 1.6 0.00 0.00 0.00 90 1014.2
20260508100003 15 179 0.0 3.2 0.00 0.00 0.00 89 1014.1
20260508095503 15 179 0.0 3.2 0.00 0.00 0.00 89 1013.9
20260508095003 15 181 0.0 1.6 0.00 0.00 0.00 89 1014.1
20260508094503 16 0 0.0 0.0 0.00 0.00 0.00 88 1014.1
20260508094004 16 181 0.0 1.6 0.00 0.00 0.00 88 1014.2
20260508093503 16 182 0.0 3.2 0.00 0.00 0.00 88 1014.1
20260508093003 16 178 0.0 3.2 0.00 0.00 0.00 89 1014.1
20260508092503 16 168 0.0 1.6 0.00 0.00 0.00 89 1014.0
20260508092003 16 171 0.0 3.2 0.00 0.00 0.00 89 1014.1
20260508091003 16 173 0.0 6.4 0.00 0.00 0.00 90 1014.2
20260508090003 16 145 0.0 3.2 0.00 0.00 0.00 90 1014.0
20260508085503 16 0 0.0 0.0 0.00 0.00 0.00 90 1014.0
20260508085003 15 0 0.0 0.0 0.00 0.00 0.00 89 1014.4
20260508084503 15 0 0.0 0.0 0.00 0.00 0.00 89 1014.6
20260508084003 15 0 0.0 0.0 0.00 0.00 0.00 89 1014.9
20260508083503 15 0 0.0 0.0 0.00 0.00 0.00 89 1015.0
20260508083003 15 0 0.0 0.0 0.00 0.00 0.00 89 1015.1
20260508082503 15 0 0.0 0.0 0.00 0.00 0.00 89 1015.3
20260508082003 16 0 0.0 0.0 0.00 0.00 0.00 89 1015.3
20260508081003 16 0 0.0 0.0 0.00 0.00 0.00 89 1015.4
20260508080502 16 0 0.0 0.0 0.00 0.00 0.00 89 1015.4
20260508080004 15 0 0.0 0.0 0.00 0.00 0.00 89 1015.6
20260508075503 15 0 0.0 0.0 0.00 0.00 0.00 90 1015.3
20260508075003 15 0 0.0 0.0 0.00 0.00 0.00 90 1015.3
20260508074503 15 0 0.0 0.0 0.00 0.00 0.00 89 1015.1
20260508074004 15 0 0.0 0.0 0.00 0.00 0.00 89 1015.1
20260508073503 15 0 0.0 0.0 0.00 0.00 0.00 89 1014.9
20260508073003 15 0 0.0 0.0 0.00 0.00 0.00 89 1014.9
20260508072503 15 0 0.0 0.0 0.00 0.00 0.00 89 1015.0
20260508072003 15 0 0.0 0.0 0.00 0.00 0.00 89 1014.9
20260508071503 15 0 0.0 0.0 0.00 0.00 0.00 89 1015.0
20260508071003 15 0 0.0 0.0 0.00 0.00 0.00 89 1015.1
20260508070503 15 0 0.0 0.0 0.00 0.00 0.00 89 1015.2
20260508065503 15 0 0.0 0.0 0.00 0.00 0.00 89 1015.3
20260508065003 15 0 0.0 0.0 0.00 0.00 0.00 88 1015.4
20260508064003 15 0 0.0 0.0 0.00 0.00 0.00 88 1015.7
20260508063003 15 0 0.0 0.0 0.00 0.00 0.00 88 1015.8
20260508062503 15 0 0.0 0.0 0.00 0.00 0.00 88 1015.6
20260508062003 15 0 0.0 0.0 0.00 0.00 0.00 88 1015.7
20260508061503 15 0 0.0 0.0 0.00 0.00 0.00 88 1015.8
20260508061004 15 0 0.0 0.0 0.00 0.00 0.00 87 1015.7
20260508060503 15 0 0.0 0.0 0.00 0.00 0.00 87 1015.8
20260508060003 15 0 0.0 0.0 0.00 0.00 0.00 87 1015.8
20260508055504 15 0 0.0 0.0 0.00 0.00 0.00 87 1015.7
20260508054004 15 0 0.0 0.0 0.00 0.00 0.00 87 1015.7
20260508053004 15 0 0.0 0.0 0.00 0.00 0.00 87 1015.8
20260508052503 15 0 0.0 0.0 0.00 0.00 0.00 87 1015.8
20260508052003 15 0 0.0 0.0 0.00 0.00 0.00 86 1015.8
20260508051504 15 0 0.0 0.0 0.00 0.00 0.00 86 1015.7
20260508051003 15 0 0.0 0.0 0.00 0.00 0.00 86 1015.7
20260508050004 15 0 0.0 0.0 0.00 0.00 0.00 85 1015.8
20260508045503 15 0 0.0 0.0 0.00 0.00 0.00 85 1015.8
20260508045004 15 0 0.0 0.0 0.00 0.00 0.00 85 1016.0
20260508044501 15 0 0.0 0.0 0.00 0.00 0.00 85 1015.9
20260508044002 15 0 0.0 0.0 0.00 0.00 0.00 86 1015.9
20260508043501 15 0 0.0 0.0 0.00 0.00 0.00 84 1015.7
20260508042501 15 0 0.0 0.0 0.00 0.00 0.00 84 1015.7
20260508042001 15 0 0.0 0.0 0.00 0.00 0.00 83 1015.7
20260508041501 15 0 0.0 0.0 0.00 0.00 0.00 84 1015.7
20260508041001 15 0 0.0 0.0 0.00 0.00 0.00 84 1015.7
20260508040001 15 0 0.0 0.0 0.00 0.00 0.00 83 1015.5
20260508035002 16 0 0.0 0.0 0.00 0.00 0.00 82 1015.4
20260508033501 16 0 0.0 0.0 0.00 0.00 0.00 82 1015.4
20260508033002 16 0 0.0 0.0 0.00 0.00 0.00 83 1015.3
20260508032502 16 0 0.0 0.0 0.00 0.00 0.00 82 1015.3
20260508032001 16 0 0.0 0.0 0.00 0.00 0.00 82 1015.4
20260508031502 16 0 0.0 0.0 0.00 0.00 0.00 82 1015.4
20260508031001 16 0 0.0 0.0 0.00 0.00 0.00 81 1015.5
20260508030502 16 0 0.0 0.0 0.00 0.00 0.00 81 1015.4
20260508030001 16 0 0.0 0.0 0.00 0.00 0.00 80 1015.4
20260508025502 16 0 0.0 0.0 0.00 0.00 0.00 80 1015.4
20260508025001 16 0 0.0 0.0 0.00 0.00 0.00 80 1015.3
20260508024502 16 0 0.0 0.0 0.00 0.00 0.00 80 1015.3
20260508024001 16 0 0.0 0.0 0.00 0.00 0.00 79 1015.4
20260508022502 16 0 0.0 0.0 0.00 0.00 0.00 78 1015.2
20260508022003 16 0 0.0 0.0 0.00 0.00 0.00 77 1015.2
20260508021501 17 0 0.0 0.0 0.00 0.00 0.00 77 1015.1
20260508021002 17 0 0.0 0.0 0.00 0.00 0.00 77 1015.0
20260508020501 17 0 0.0 0.0 0.00 0.00 0.00 77 1014.8
20260508020002 17 0 0.0 0.0 0.00 0.00 0.00 77 1014.9
20260508015501 17 0 0.0 0.0 0.00 0.00 0.00 76 1014.9
20260508015002 17 0 0.0 0.0 0.00 0.00 0.00 76 1014.9
20260508014501 17 0 0.0 0.0 0.00 0.00 0.00 75 1015.0
20260508014001 17 0 0.0 0.0 0.00 0.00 0.00 75 1015.1
20260508013502 17 0 0.0 0.0 0.00 0.00 0.00 75 1015.1
20260508013001 18 0 0.0 0.0 0.00 0.00 0.00 75 1014.9
20260508012502 18 0 0.0 0.0 0.00 0.00 0.00 74 1015.1
20260508012001 18 0 0.0 0.0 0.00 0.00 0.00 74 1015.0
20260508011502 18 0 0.0 0.0 0.00 0.00 0.00 74 1014.9
20260508010502 18 0 0.0 0.0 0.00 0.00 0.00 73 1015.0
20260508010002 18 0 0.0 0.0 0.00 0.00 0.00 74 1014.9
20260508005502 18 0 0.0 0.0 0.00 0.00 0.00 74 1014.9
20260508005001 19 171 0.0 1.6 0.00 0.00 0.00 73 1014.8
20260508004502 19 172 0.0 1.6 0.00 0.00 0.00 73 1014.9
20260508004001 19 168 0.0 1.6 0.00 0.00 0.00 73 1015.0
20260508003002 20 163 0.0 1.6 0.00 0.00 0.00 72 1015.0
20260508002502 20 155 0.0 1.6 0.00 0.00 0.00 72 1015.1
20260508002001 20 155 0.0 1.6 0.00 0.00 0.00 71 1015.1
20260508001502 20 155 0.0 1.6 0.00 0.00 0.00 71 1015.0
20260508001001 20 176 0.0 4.8 0.00 0.00 0.00 70 1015.0
20260508000502 20 189 1.6 6.4 0.00 0.00 0.00 69 1015.1
20260508000002 20 189 1.6 6.4 0.00 0.00 0.00 69 1015.1
20260507235501 20 181 0.0 6.4 0.00 0.00 0.00 68 1015.0
20260507235001 20 183 1.6 8.0 0.00 0.00 0.00 69 1015.0
20260507234502 20 187 3.2 8.0 0.00 0.00 0.00 68 1015.0
20260507234001 20 184 3.2 8.0 0.00 0.00 0.00 67 1015.0
20260507233502 20 174 1.6 8.0 0.00 0.00 0.00 68 1015.1
20260507232002 20 171 3.2 8.0 0.00 0.00 0.00 67 1015.2
20260507231502 21 182 3.2 8.0 0.00 0.00 0.00 66 1015.3
20260507231002 21 190 1.6 8.0 0.00 0.00 0.00 66 1015.2
20260507230502 21 188 1.6 8.0 0.00 0.00 0.00 66 1015.3
20260507230002 21 169 1.6 9.7 0.00 0.00 0.00 67 1015.2
20260507225502 21 164 1.6 9.7 0.00 0.00 0.00 66 1015.3
20260507225002 21 187 1.6 9.7 0.00 0.00 0.00 66 1015.3
20260507224002 21 171 3.2 8.0 0.00 0.00 0.00 66 1015.3
20260507223502 21 161 1.6 8.0 0.00 0.00 0.00 65 1015.4
20260507223001 21 174 3.2 9.7 0.00 0.00 0.00 65 1015.3
20260507222502 21 181 1.6 9.7 0.00 0.00 0.00 65 1015.4
20260507222001 22 175 1.6 8.0 0.00 0.00 0.00 65 1015.2
20260507221502 22 178 3.2 9.7 0.00 0.00 0.00 64 1015.3
20260507221002 22 175 3.2 9.7 0.00 0.00 0.00 63 1015.4
20260507220502 22 174 1.6 8.0 0.00 0.00 0.00 63 1015.4
20260507220002 22 177 1.6 6.4 0.00 0.00 0.00 63 1015.4
20260507215502 22 175 1.6 8.0 0.00 0.00 0.00 62 1015.3
20260507215002 22 167 1.6 8.0 0.00 0.00 0.00 60 1015.3
20260507214502 22 167 1.6 6.4 0.00 0.00 0.00 61 1015.4
20260507214002 23 175 1.6 4.8 0.00 0.00 0.00 60 1015.6
20260507213502 23 183 0.0 4.8 0.00 0.00 0.00 58 1015.6
20260507213002 23 174 0.0 3.2 0.00 0.00 0.00 59 1015.7
20260507212002 23 170 0.0 4.8 0.00 0.00 0.00 59 1015.8
20260507211502 23 131 0.0 3.2 0.00 0.00 0.00 59 1015.9
20260507211003 23 131 0.0 1.6 0.00 0.00 0.00 60 1015.9
20260507210502 23 130 0.0 1.6 0.00 0.00 0.00 58 1015.8
20260507205502 23 138 0.0 1.6 0.00 0.00 0.00 60 1015.9
20260507205002 23 140 0.0 3.2 0.00 0.00 0.00 58 1015.9
20260507204502 23 138 0.0 3.2 0.00 0.00 0.00 57 1015.8
20260507204002 23 139 0.0 3.2 0.00 0.00 0.00 61 1015.8
20260507203502 23 139 0.0 1.6 0.00 0.00 0.00 59 1015.9
20260507202003 23 146 0.0 1.6 0.00 0.00 0.00 58 1016.3
20260507201502 23 181 0.0 1.6 0.00 0.00 0.00 58 1016.3
20260507201001 23 123 0.0 3.2 0.00 0.00 0.00 59 1016.6
20260507200002 23 89 0.0 4.8 0.00 0.00 0.00 60 1016.6
20260507195502 23 98 0.0 4.8 0.00 0.00 0.00 59 1016.6
20260507195002 23 186 0.0 3.2 0.00 0.00 0.00 55 1016.7
20260507194502 23 98 0.0 3.2 0.00 0.00 0.00 56 1016.8
20260507194002 23 90 0.0 4.8 0.00 0.00 0.00 58 1016.8
20260507193502 23 122 0.0 4.8 0.00 0.00 0.00 60 1016.9
20260507193002 23 104 1.6 4.8 0.00 0.00 0.00 60 1017.0
20260507192502 23 57 1.6 4.8 0.00 0.00 0.00 59 1017.1
20260507192002 22 45 1.6 4.8 0.00 0.00 0.00 60 1017.1
20260507191502 22 58 0.0 4.8 0.00 0.00 0.00 59 1017.1
20260507191002 22 78 0.0 4.8 0.00 0.00 0.00 58 1017.1
20260507190502 22 111 1.6 4.8 0.00 0.00 0.00 60 1017.2
20260507190003 22 106 1.6 4.8 0.00 0.00 0.00 59 1017.3
20260507185502 22 82 1.6 12.9 0.00 0.00 0.00 59 1017.3
20260507184502 22 88 0.0 6.4 0.00 0.00 0.00 57 1017.2
20260507184002 22 106 0.0 4.8 0.00 0.00 0.00 60 1017.3
20260507183503 22 99 0.0 4.8 0.00 0.00 0.00 61 1017.5
20260507183003 22 112 0.0 4.8 0.00 0.00 0.00 59 1017.5
20260507182502 22 96 1.6 4.8 0.00 0.00 0.00 63 1017.6
20260507182002 21 90 1.6 4.8 0.00 0.00 0.00 61 1017.7
20260507181502 21 100 0.0 4.8 0.00 0.00 0.00 60 1017.7
20260507180003 21 50 1.6 4.8 0.00 0.00 0.00 60 1017.9
20260507175502 21 67 1.6 4.8 0.00 0.00 0.00 60 1017.9
20260507175003 21 99 0.0 4.8 0.00 0.00 0.00 62 1017.9
20260507174502 21 126 0.0 4.8 0.00 0.00 0.00 63 1018.1
20260507174002 21 136 0.0 3.2 0.00 0.00 0.00 62 1018.3
20260507173502 21 130 0.0 3.2 0.00 0.00 0.00 62 1018.3
20260507173002 21 138 0.0 3.2 0.00 0.00 0.00 64 1018.4
20260507172502 21 169 0.0 3.2 0.00 0.00 0.00 64 1018.5
20260507172002 21 136 0.0 3.2 0.00 0.00 0.00 64 1018.7
20260507171502 20 110 0.0 3.2 0.00 0.00 0.00 64 1019.0
20260507171003 21 108 0.0 3.2 0.00 0.00 0.00 64 1019.3
20260507170003 21 115 0.0 3.2 0.00 0.00 0.00 65 1019.4
20260507165002 20 147 0.0 3.2 0.00 0.00 0.00 65 1019.5
20260507164002 20 129 0.0 6.4 0.00 0.00 0.00 67 1019.6
20260507163502 20 124 0.0 3.2 0.00 0.00 0.00 66 1019.7
20260507163003 20 124 0.0 3.2 0.00 0.00 0.00 66 1019.6
20260507162003 20 123 0.0 3.2 0.00 0.00 0.00 67 1019.8
20260507161502 20 135 0.0 3.2 0.00 0.00 0.00 68 1019.7
20260507161003 20 30 0.0 4.8 0.00 0.00 0.00 67 1019.6
20260507160502 19 105 0.0 4.8 0.00 0.00 0.00 68 1019.6
20260507160003 19 116 0.0 3.2 0.00 0.00 0.00 70 1019.6
20260507155502 19 113 0.0 3.2 0.00 0.00 0.00 69 1019.6
20260507155002 19 289 0.0 4.8 0.00 0.00 0.00 69 1019.6
20260507154503 19 124 0.0 4.8 0.00 0.00 0.00 68 1019.6
20260507154002 19 110 1.6 3.2 0.00 0.00 0.00 70 1019.7
20260507153003 19 119 0.0 6.4 0.00 0.00 0.00 70 1019.9
20260507152502 18 0 0.0 0.0 0.00 0.00 0.00 69 1019.9
20260507151502 18 162 0.0 1.6 0.00 0.00 0.00 71 1020.0
20260507151002 18 252 0.0 1.6 0.00 0.00 0.00 72 1020.0
20260507150503 18 93 0.0 4.8 0.00 0.00 0.00 73 1020.0
20260507150002 18 101 0.0 4.8 0.00 0.00 0.00 73 1020.0
20260507145502 18 110 0.0 4.8 0.00 0.00 0.00 74 1020.0
20260507144502 17 236 0.0 1.6 0.00 0.00 0.00 74 1020.0
20260507144003 17 236 0.0 1.6 0.00 0.00 0.00 75 1020.0
20260507143003 17 247 0.0 1.6 0.00 0.00 0.00 77 1020.1
20260507142502 16 253 0.0 3.2 0.00 0.00 0.00 79 1020.2
20260507142003 16 263 0.0 3.2 0.00 0.00 0.00 80 1020.1
20260507141502 16 267 0.0 1.6 0.00 0.00 0.00 79 1020.1
20260507141002 16 0 0.0 0.0 0.00 0.00 0.00 78 1020.2
20260507140003 16 273 0.0 1.6 0.00 0.00 0.00 80 1020.3
20260507135503 15 271 0.0 1.6 0.00 0.00 0.00 83 1020.4
20260507135002 15 270 0.0 4.8 0.00 0.00 0.00 84 1020.4
20260507134502 15 270 0.0 4.8 0.00 0.00 0.00 84 1020.6
20260507134003 14 267 0.0 3.2 0.00 0.00 0.00 86 1020.5
20260507133502 13 267 0.0 3.2 0.00 0.00 0.00 86 1020.5
20260507131503 13 275 0.0 1.6 0.00 0.00 0.00 89 1020.4
20260507131003 13 277 0.0 3.2 0.00 0.00 0.00 89 1020.5
20260507130502 12 276 0.0 3.2 0.00 0.00 0.00 90 1020.5
20260507130003 12 274 0.0 3.2 0.00 0.00 0.00 91 1020.5
20260507125503 12 274 0.0 3.2 0.00 0.00 0.00 92 1020.5
20260507125002 12 273 0.0 3.2 0.00 0.00 0.00 92 1020.4
20260507124503 12 262 0.0 3.2 0.00 0.00 0.00 93 1020.3
20260507124002 12 223 0.0 1.6 0.00 0.00 0.00 93 1020.1
20260507123502 11 0 0.0 0.0 0.00 0.00 0.00 93 1020.1
20260507123003 11 0 0.0 0.0 0.00 0.00 0.00 93 1020.1
20260507122503 11 0 0.0 0.0 0.00 0.00 0.00 93 1020.1
20260507115503 11 222 0.0 1.6 0.00 0.00 0.00 93 1019.7
20260507115003 11 222 0.0 1.6 0.00 0.00 0.00 93 1019.6
20260507114503 11 223 0.0 1.6 0.00 0.00 0.00 92 1019.8
20260507113503 11 0 0.0 0.0 0.00 0.00 0.00 92 1019.7
20260507113003 11 0 0.0 0.0 0.00 0.00 0.00 92 1019.5
20260507112502 11 0 0.0 0.0 0.00 0.00 0.00 92 1019.6
20260507112003 11 0 0.0 0.0 0.00 0.00 0.00 92 1019.6
20260507111503 12 0 0.0 0.0 0.00 0.00 0.00 92 1019.6
20260507111002 12 265 0.0 6.4 0.00 0.00 0.00 92 1019.7
20260507110503 12 252 0.0 6.4 0.00 0.00 0.00 92 1019.6
20260507110003 11 142 0.0 3.2 0.00 0.00 0.00 92 1019.4
20260507105502 11 123 0.0 1.6 0.00 0.00 0.00 92 1019.0
20260507105003 11 0 0.0 0.0 0.00 0.00 0.00 92 1018.7
20260507104503 11 0 0.0 0.0 0.00 0.00 0.00 91 1018.5
20260507104004 11 0 0.0 0.0 0.00 0.00 0.00 91 1018.5
20260507103503 11 0 0.0 0.0 0.00 0.00 0.00 91 1018.5